User: anonymous   Login
Location: Mount Wilson Observatory
(34.2257°N, 118.0571°W)
Time: 02:24:42
(UTC-07:00)
Language:

ATLAS 3B CENTAUR R/B - Orbit

View from above orbital plane
View from above orbital plane
View from above satellite
View from above satellite

Ground track
Ground track

The orbit data is extracted from the following two-line orbital elements,

1 28118U 03057B   15240.45025052  .00115851  00000-0  20204-2 0  9991
2 28118 028.1343 299.6986 3539966 145.3764 243.8517 08.40534499230835
Epoch (UTC): 28 August 2015 10:48:21
Eccentricity: 0.3539966
inclination: 28.1343°
perigee height: 223 km
apogee height: 7457 km
right ascension of ascending node: 299.6986°
argument of perigee: 145.3764°
revolutions per day: 8.40534499
mean anomaly at epoch: 243.8517°
orbit number at epoch: 23083

The dashed part of the orbit path shows where the satellite is in the earth's shadow,  

DLR